Weather History for Marathon, FL

Change the Weather History Date:

Saturday, October 6, 2012

  Actual Average Record
Temperature  
Mean Temperature 86 °F 82 °F  
Max Temperature 90 °F 87 °F 91 °F (2002)
Min Temperature 82 °F 77 °F 73 °F (1999)
Degree Days  
Heating Degree Days 0 0  
Month to date heating degree days 0 0  
Since 1 July heating degree days 0 0  
Cooling Degree Days 21 17  
Month to date cooling degree days 117 107  
Year to date cooling degree days 4360 4061  
Growing Degree Days 36 (Base 50)    
Moisture  
Dew Point 76 °F    
Average Humidity 74    
Maximum Humidity 88    
Minimum Humidity 59    
Precipitation  
Precipitation 0.00 in 0.16 in 1.29 in (1999)
Month to date precipitation 0.66 1.06  
Year to date precipitation 40.79 37.61  
Snow  
Snow 0.00 in - - ()
Month to date snowfall 0.0  
Since 1 July snowfall 0.0  
Since 1 September snowfall 0.0  
Snow Depth 0.00 in    
Sea Level Pressure  
Sea Level Pressure 29.91 in    
Wind  
Wind Speed 5 mph (East)    
Max Wind Speed 10 mph    
Max Gust Speed 15 mph    
Visibility 10 miles    
Events      
T = Trace of Precipitation, MM = Missing Value Source: NWS Daily Summary

Daily Weather History Graph

Daily Weather History Graph

Search for Another Location

Airport:

Trip Planner

Search our weather history database for the weather conditions in past years. The results will help you decide how hot, cold, wet, or windy it might be!

Date:

Astronomy

Oct. 06, 2012 Rise Set
Actual Time 7:18 AM EDT 7:05 PM EDT
Civil Twilight 6:55 AM EDT 7:28 PM EDT
Nautical Twilight 6:29 AM EDT 7:54 PM EDT
Astronomical Twilight 6:02 AM EDT 8:21 PM EDT
Moon 11:46 PM EDT (10/6) 12:44 PM EDT (10/6)
Length of Visible Light 12h 32m
Length of Day
11h 47m
Waning Gibbous, 65% of the Moon is Illuminated
Oct 6
Waning Gibbous
Oct 8
Last Quarter
Oct 15
New
Oct 21
First Quarter
Oct 29
Full

Hourly Weather History & Observations

Time (EDT) Temp. Heat Index Dew Point Humidity Pressure Visibility Wind Dir Wind Speed Gust Speed Precip Events Conditions
12:53 AM 82.9 °F 91.8 °F 77.0 °F 82% 29.96 in 10.0 mi East 9.2 mph - N/A   Clear
1:53 AM 82.0 °F 90.2 °F 77.0 °F 85% 29.95 in 10.0 mi East 5.8 mph - N/A   Clear
2:53 AM 82.9 °F 90.2 °F 75.0 °F 77% 29.92 in 10.0 mi Variable 4.6 mph - N/A   Mostly Cloudy
3:53 AM 82.9 °F 90.8 °F 75.9 °F 79% 29.90 in 10.0 mi East 6.9 mph - N/A   Clear
4:53 AM 82.9 °F 92.8 °F 78.1 °F 85% 29.90 in 10.0 mi ESE 5.8 mph - N/A   Mostly Cloudy
5:27 AM 82.4 °F 90.9 °F 77.0 °F 84% 29.91 in 10.0 mi Variable 6.9 mph - N/A   Scattered Clouds
5:53 AM 82.9 °F 91.8 °F 77.0 °F 82% 29.91 in 10.0 mi East 5.8 mph - N/A   Partly Cloudy
6:53 AM 82.9 °F 91.8 °F 77.0 °F 82% 29.92 in 10.0 mi ESE 4.6 mph - N/A   Scattered Clouds
7:53 AM 82.9 °F 90.8 °F 75.9 °F 79% 29.92 in 10.0 mi ESE 5.8 mph - N/A   Clear
8:53 AM 86.0 °F 98.3 °F 78.1 °F 77% 29.93 in 10.0 mi ESE 3.5 mph - N/A   Clear
9:53 AM 86.0 °F 96.9 °F 77.0 °F 74% 29.94 in 10.0 mi Calm Calm - N/A   Partly Cloudy
10:53 AM 88.0 °F 98.5 °F 75.9 °F 67% 29.93 in 10.0 mi SE 3.5 mph - N/A   Scattered Clouds
11:53 AM 89.1 °F 101.4 °F 77.0 °F 67% 29.94 in 10.0 mi SE 5.8 mph - N/A   Partly Cloudy
12:42 PM 89.6 °F 99.8 °F 75.2 °F 62% 29.92 in 10.0 mi East 8.1 mph - N/A   Mostly Cloudy
12:50 PM 89.6 °F 99.8 °F 75.2 °F 62% 29.92 in 10.0 mi ESE 6.9 mph - N/A   Scattered Clouds
12:53 PM 90.0 °F 102.5 °F 77.0 °F 65% 29.92 in 10.0 mi ESE 5.8 mph - N/A   Partly Cloudy
1:53 PM 89.1 °F 100.2 °F 75.9 °F 65% 29.90 in 10.0 mi East 5.8 mph - N/A   Clear
2:53 PM 89.1 °F 98.0 °F 73.9 °F 61% 29.88 in 10.0 mi ESE 6.9 mph - N/A   Clear
3:53 PM 86.0 °F 96.0 °F 75.9 °F 72% 29.86 in 10.0 mi ESE 5.8 mph - N/A   Partly Cloudy
4:53 PM 88.0 °F 98.5 °F 75.9 °F 67% 29.86 in 10.0 mi ENE 5.8 mph - N/A   Scattered Clouds
5:53 PM 84.0 °F 91.2 °F 73.9 °F 72% 29.86 in 10.0 mi East 4.6 mph - N/A   Clear
7:53 PM 84.0 °F 89.6 °F 72.0 °F 67% 29.90 in 10.0 mi East 3.5 mph - N/A   Clear
8:53 PM 82.9 °F 88.8 °F 73.0 °F 72% 29.92 in 10.0 mi East 4.6 mph - N/A   Clear
9:53 PM 82.9 °F 90.2 °F 75.0 °F 77% 29.92 in 10.0 mi East 4.6 mph - N/A   Clear
10:53 PM 82.9 °F 90.2 °F 75.0 °F 77% 29.94 in 10.0 mi ENE 4.6 mph - N/A   Clear
11:53 PM 82.9 °F 90.2 °F 75.0 °F 77% 29.92 in 10.0 mi NE 4.6 mph - N/A   Partly Cloudy